Location: Landeleau
(48.2273°N, 3.7285°W)
Time: 02:29:20
(UTC+00:00)

Resurs 01 Rocket - Pass Details

Date: 30 March 2020
Orbit: 634 x 644 km, 98.0° (Epoch: 03 June)

Event Time Altitude Azimuth Distance (km) Brightness Sun altitude
Exits shadow 21:54:04 15° 243° (WSW) 1,687 3.9 -28.7°
Maximum altitude 21:55:37 18° 269° (W) 1,555 4.0 -28.9°
Drops below altitude 10° 21:58:40 10° 313° (NW) 2,031 5.1 -29.2°
Sets 22:01:31 0° 332° (NNW) 2,947 6.2 -29.6°
